Regional Weather Roundup
Issued by NWS

Home | Current Version | Previous Version | Graphics & Text | Print | Product List | Glossary On
Versions: 1 2 3 4 5 6 7 8 9 10 11 12 13 14 15 16 17 18 19 20 21 22 23 24 25 26 27 28 29 30 31 32 33 34 35 36 37 38 39 40 41 42 43 44 45 46 47 48 49 50
000
ASUS43 KMKX 011521
RWRWI

WISCONSIN REGIONAL WEATHER ROUNDUP
NATIONAL WEATHER SERVICE MILWAUKEE/SULLIVAN WI
1000 AM CDT WED OCT 01 2014

NOTE: "FAIR" INDICATES FEW OR NO CLOUDS BELOW 12,000 FEET WITH NO
SIGNIFICANT WEATHER AND/OR OBSTRUCTIONS TO VISIBILITY.

WIZ001-002-006>008-014>016-023>028-011600-
NORTHWEST WISCONSIN

CITY           SKY/WX    TMP DP  RH WIND       PRES   REMARKS
SUPERIOR ARPT  LGT RAIN  48  47  99 E5        29.87S
ASHLAND        CLOUDY    50  44  80 S3        29.91F
HAYWARD        LGT RAIN  48  45  89 S8        29.90S FOG
SIREN          LGT RAIN  48  47  95 S9        29.87S
CUMBERLAND     RAIN      45  45 100 SE10      29.89S
RICE LAKE      LGT RAIN  47  45  93 SE9       29.92S
CHETEK         DRIZZLE   47  46  97 E8        29.91F
LADYSMITH      RAIN      48  46  90 SE8       29.94F
EAU CLAIRE     RAIN      48  46  93 SE9       29.91F FOG
MENOMONIE      RAIN      48  47  97 E8        29.91S
NEW RICHMOND   RAIN      47  47  98 SE8       29.87F
OSCEOLA        RAIN      49  49 100 SE10G17   29.88F
$$

WIZ003>005-009-010-017-018-011600-
NORTH CENTRAL WISCONSIN

CITY           SKY/WX    TMP DP  RH WIND       PRES   REMARKS
MANITOWISH WTR CLOUDY    47  44  90 S10G17    29.95F
ARBOR VITAE    CLOUDY    50  46  85 S14G20    29.97F
WOODRUFF       CLOUDY    50  46  85 S14G20    29.97F
RHINELANDER    CLOUDY    46  44  93 S10       30.00S
EAGLE RIVER    CLOUDY    46  45  93 S8G16     29.99R
LAND O LAKES   CLOUDY    47  44  89 S10G16    29.99R
PHILLIPS       CLOUDY    48  44  86 SE15      29.94F
TOMAHAWK       CLOUDY    48  45  90 SE6       29.98F
MEDFORD        CLOUDY    49  45  88 SE9       29.95F
MERRILL        CLOUDY    50  47  90 SE7       29.98F
$$

WIZ029-030-035-036-043>047-011600-
CENTRAL WISCONSIN

CITY           SKY/WX    TMP DP  RH WIND       PRES   REMARKS
WAUSAU         CLOUDY    51  47  86 SE9       29.97F
MOSINEE        CLOUDY    50  50 100 SE9       29.99S
MARSHFIELD     CLOUDY    52  47  83 SE13      29.96F
STEVENS POINT  CLOUDY    51  46  84 SE16      29.99F
WAUPACA        CLOUDY    56  51  81 S10       30.01S
WAUTOMA        NOT AVBL
WISC RAPIDS    CLOUDY    54  47  77 SE13G18   29.98F
CAMP DOUGLAS   CLOUDY    54  54 100 SE10      29.95F
$$

WIZ011>013-019>022-031-037>040-048>050-011600-
NORTHEAST WISCONSIN

CITY           SKY/WX    TMP DP  RH WIND       PRES   REMARKS
ANTIGO         CLOUDY    48  47  97 S8        30.01S
SHAWANO        CLOUDY    55  52  91 E3        30.02F FOG
OCONTO         CLOUDY    53  53 100 SE5       30.03S
STURGEON BAY   NOT AVBL
GREEN BAY      CLOUDY    54  52  93 SE8       30.03R
MANITOWOC      NOT AVBL
APPLETON       CLOUDY    55  52  88 SE8       30.02R
CLINTONVILLE   CLOUDY    54  50  87 SE5       30.01F
OSHKOSH        PTSUNNY   57  51  80 S10       30.01S
$$

WIZ032>034-041-042-053>061-011600-
SOUTHWEST WISCONSIN

CITY           SKY/WX    TMP DP  RH WIND       PRES   REMARKS
LA CROSSE      CLOUDY    56  48  74 SE13      29.91F
SPARTA         CLOUDY    53  47  79 E6        29.93F
VIROQUA        CLOUDY    52  49  90 SE9       29.92F
BOSCOBEL       CLOUDY    57  48  72 VRB6      29.94F
PRAIRIE DU CHI CLOUDY    55  47  74 E7        29.92S
PLATTEVILLE    CLOUDY    56  49  78 SE14      29.94F
$$

WIZ056-057-062-063-064-067-068-011600-
SOUTH CENTRAL WISCONSIN

CITY           SKY/WX    TMP DP  RH WIND       PRES   REMARKS
REEDSBURG      PTSUNNY  N/A N/A N/A SE6       29.96F
BARABOO/DELLS  PTSUNNY   56  47  72 SE10      29.97F
LONE ROCK      MOSUNNY   61  47  59 SE14      29.96F
MINERAL POINT  PTSUNNY   55  46  71 SE13      29.95F
MADISON        MOSUNNY   58  47  66 SE16      29.99S
MIDDLETON      MOSUNNY   59  47  64 SE14      29.98F
WATERTOWN      PTSUNNY   57  48  72 SE10G16   30.00F
MONROE         SUNNY     55  48  76 SE14      29.97F
JANESVILLE     SUNNY     59  46  63 S14       29.99S
$$

WIZ051-052-058>065-066-070>072-011600-
SOUTHEAST WISCONSIN

CITY           SKY/WX    TMP DP  RH WIND       PRES   REMARKS
MILWAUKEE      PTSUNNY   59  50  72 S12       30.03R
WAUKESHA       PTSUNNY   55  48  76 SE7       30.03S
MILWAUKEE/TIMM CLOUDY    57  48  72 SE6       30.03R
RACINE         CLOUDY    59  48  67 S12       30.05R
BURLINGTON     MOSUNNY   58  47  67 S8        30.01F
KENOSHA        PTSUNNY   58  49  72 S12       30.03R
FOND DU LAC    MOSUNNY   58  49  72 S15       30.01F
SHEBOYGAN      CLOUDY    57  50  77 S8        30.03R
WEST BEND      CLOUDY    57  48  72 SE7       30.03R
JUNEAU         MOSUNNY   55  48  76 SE10      30.02F
$$

LSZ147-162-011600-
LAKE SUPERIOR

STATION/POSITION TIME  TEMP    WIND        PRES    WAVE
                       AIR SEA DIR/SP/G            HT/PER
                 (UTC) (F)     (DEG/KT/KT) (MB)    (FT/S)
W MID LAKE BUOY  1450   49 50  150/ 12/ 14 1013.9R   2/ 3
DEVILS ISLAND    1500   50     150/  5/  7 1013.1F
SAXON HARBOR     1400   52     200/  3/  9 1012.9R
$$

LMZ867-665-643>646-011600-
LAKE MICHIGAN

STATION/POSITION TIME  TEMP    WIND        PRES    WAVE
                       AIR SEA DIR/SP/G            HT/PER
                 (UTC) (F)     (DEG/KT/KT) (MB)    (FT/S)
CHAMBERS ISLAND  1400   54     130/  3/  8 1017.3S
N MID LAKE BUOY  1450   55 58  180/  8/ 10 1018.0S   1/ 3
NORTHPORT PIER   1400   55     180/  3/  8 1017.3S
SISTER BAY       1442          200/  8/  9   N/A
KEWAUNEE LAKESHO 1500   53     140/ 11/ 14 1016.4R
SHEBOYGAN LAKESH 1500   56 54  140/ 13/ 14 1017.4R
PORT WASHINGTON  1440   58     180/  4/  5 1017.3R
ATWATER BUOY     1500   58     170/ 10/ 12 1017.8R
MILWAUKEE LAKESH 1500   58     150/ 11/ 13   N/A
S MID LAKE BUOY  1450   57 61  150/ 10/ 14 1017.6R   2/ 4
KENOSHA   LAKESH 1500   58     160/ 13/ 16 1016.6S
$$

TC  - TEMPERATURE IN CELSIUS
VSB - VISIBILITY IN STATUTE MILES
WCI - WIND CHILL INDEX
HX  - HEAT INDEX



USA.gov is the U.S. government's official web portal to all federal, state and local government web resources and services.